sat.trackr.live / text

‹ back to catalog

GEESAT-5 04

NORAD 65553 · 2025-201D

PAYLOAD ACTIVE UNKNOWN

§ Identity

Operator
Country
PRC
Launch date
2025-09-08
Launch site
YSLA
Launch vehicle
Mass (kg)
RCS (m²)

External: N2YO · Heavens-Above · Gunter

§ Orbital elements

Epoch: 2026-09-20T12:00:21.308832Z

Period
97.01 min
Inclination
49.9869°
Eccentricity
0.0008520
Mean motion
14.84431495 rev/d
Perigee alt
609.4 km
Apogee alt
621.3 km
Semi-major
6,993.5 km
B*
9.9090e-5
RAAN
317.6366°
Arg perigee
276.2568°
Mean anomaly
83.7400°
Rev number
5,594

§ Raw data

GEESAT-5 041 65553U 25201D   26263.50024663  .00000614  00000+0  99090-4 0  99902 65553  49.9869 317.6366 0008520 276.2568  83.7400 14.84431495 55942

JSON: /api/v1/satellites/65553 · /tle

For live sub-satellite position, see the globe view (requires WebGL).

§ Visibility from observer

Set your observer location to see the next 7 days of passes ≥ 10°. The values pass through the URL so the page stays shareable.

No JS? Fill the form by hand. The geolocation button needs JavaScript.